• Em Portugal
  • Lista de países
  • Para 7 dias
  • Temperatura da água
  • Mapas de satélite
  • Mapa do tempo
  • Widgets de tempo
  • user-avatar
    Iniciar Sessão

    Previsão horária em La Condamine

    Hoje, 21 Outubro, Domingo

    Tempo Temperatura Precipitação Vento Pressão Humidade
    00:00 +18°C° 0 mm 2 m/s 750 mmHg 56%
    01:00 +17°C° 0 mm 2 m/s 750 mmHg 53%
    02:00 +17°C° 0 mm 2 m/s 749 mmHg 49%
    03:00 +17°C° 0 mm 2 m/s 749 mmHg 45%
    04:00 +17°C° 0 mm 2 m/s 749 mmHg 45%
    05:00 +17°C° 0 mm 2 m/s 749 mmHg 45%
    06:00 +17°C° 0 mm 2 m/s 749 mmHg 47%
    07:00 +20°C° 0 mm 2 m/s 748 mmHg 44%
    08:00 +23°C° 0 mm 2 m/s 748 mmHg 41%
    09:00 +26°C° 0 mm 2 m/s 748 mmHg 37%
    10:00 +26°C° 0 mm 2 m/s 747 mmHg 38%
    11:00 +27°C° 0 mm 2 m/s 747 mmHg 38%
    12:00 +28°C° 0 mm 3 m/s 747 mmHg 38%
    13:00 +27°C° 0 mm 2 m/s 746 mmHg 42%
    14:00 +26°C° 0 mm 2 m/s 746 mmHg 46%
    15:00 +25°C° 0 mm 2 m/s 745 mmHg 50%
    16:00 +23°C° 0 mm 2 m/s 745 mmHg 57%
    17:00 +20°C° 0 mm 3 m/s 745 mmHg 64%
    18:00 +18°C° 0 mm 3 m/s 746 mmHg 72%
    19:00 +18°C° 0 mm 4 m/s 746 mmHg 73%
    20:00 +17°C° 0 mm 5 m/s 747 mmHg 75%
    21:00 +16°C° 0 mm 6 m/s 748 mmHg 76%
    22:00 +16°C° 0 mm 7 m/s 748 mmHg 78%
    23:00 +15°C° 0 mm 7 m/s 748 mmHg 80%

    Amanhã, 22 Outubro, Segunda-feira

    Tempo Temperatura Precipitação Vento Pressão Humidade
    00:00 +15°C° 0 mm 8 m/s 749 mmHg 81%
    01:00 +15°C° 0 mm 7 m/s 749 mmHg 80%
    02:00 +14°C° 0 mm 6 m/s 749 mmHg 80%
    03:00 +14°C° 0 mm 6 m/s 749 mmHg 79%
    04:00 +13°C° 0 mm 5 m/s 749 mmHg 78%
    05:00 +13°C° 0 mm 5 m/s 749 mmHg 77%
    06:00 +13°C° 0 mm 4 m/s 749 mmHg 76%
    07:00 +15°C° 0 mm 4 m/s 750 mmHg 70%
    08:00 +17°C° 0 mm 4 m/s 750 mmHg 64%
    09:00 +19°C° 0 mm 3 m/s 750 mmHg 58%
    10:00 +20°C° 0 mm 3 m/s 750 mmHg 54%
    11:00 +21°C° 0 mm 3 m/s 750 mmHg 50%
    12:00 +23°C° 0 mm 2 m/s 750 mmHg 45%
    13:00 +23°C° 0 mm 2 m/s 749 mmHg 46%
    14:00 +21°C° 0 mm 2 m/s 749 mmHg 47%
    15:00 +21°C° 0 mm 2 m/s 749 mmHg 48%
    16:00 +19°C° 0 mm 2 m/s 749 mmHg 53%
    17:00 +17°C° 0 mm 2 m/s 749 mmHg 58%
    18:00 +16°C° 0 mm 2 m/s 749 mmHg 63%
    19:00 +15°C° 0 mm 2 m/s 750 mmHg 54%
    20:00 +15°C° 0 mm 2 m/s 750 mmHg 45%
    21:00 +15°C° 0 mm 2 m/s 750 mmHg 36%
    22:00 +15°C° 0 mm 2 m/s 750 mmHg 33%
    23:00 +14°C° 0 mm 3 m/s 750 mmHg 30%

    Depois de amanhã, 23 Outubro, Terça-feira

    Tempo Temperatura Precipitação Vento Pressão Humidade
    00:00 +14°C° 0 mm 3 m/s 751 mmHg 28%
    01:00 +14°C° 0 mm 3 m/s 750 mmHg 30%
    02:00 +13°C° 0 mm 3 m/s 750 mmHg 32%
    03:00 +13°C° 0 mm 3 m/s 750 mmHg 34%
    04:00 +13°C° 0 mm 3 m/s 751 mmHg 36%
    05:00 +13°C° 0 mm 3 m/s 751 mmHg 37%
    06:00 +13°C° 0 mm 3 m/s 751 mmHg 39%
    07:00 +17°C° 0 mm 2 m/s 751 mmHg 37%
    08:00 +19°C° 0 mm 2 m/s 751 mmHg 34%
    09:00 +23°C° 0 mm 1 m/s 751 mmHg 32%
    10:00 +23°C° 0 mm 1 m/s 751 mmHg 32%
    11:00 +24°C° 0 mm 1 m/s 751 mmHg 32%
    12:00 +25°C° 0 mm 1 m/s 751 mmHg 32%
    13:00 +24°C° 0 mm 1 m/s 750 mmHg 35%
    14:00 +24°C° 0 mm 1 m/s 750 mmHg 38%
    15:00 +23°C° 0 mm 1 m/s 749 mmHg 41%
    16:00 +20°C° 0 mm 2 m/s 749 mmHg 47%
    17:00 +18°C° 0 mm 2 m/s 749 mmHg 53%
    18:00 +17°C° 0 mm 2 m/s 749 mmHg 59%
    19:00 +17°C° 0 mm 2 m/s 749 mmHg 55%
    20:00 +17°C° 0 mm 2 m/s 749 mmHg 52%
    21:00 +17°C° 0 mm 2 m/s 749 mmHg 48%
    22:00 +17°C° 0 mm 2 m/s 749 mmHg 46%
    23:00 +17°C° 0 mm 2 m/s 749 mmHg 43%

    24 Outubro, Quarta-feira

    Tempo Temperatura Precipitação Vento Pressão Humidade
    00:00 +17°C° 0 mm 2 m/s 748 mmHg 41%
    01:00 +17°C° 0 mm 2 m/s 748 mmHg 40%
    02:00 +17°C° 0 mm 2 m/s 748 mmHg 39%
    03:00 +17°C° 0 mm 2 m/s 747 mmHg 38%
    04:00 +17°C° 0 mm 2 m/s 747 mmHg 37%
    05:00 +17°C° 0 mm 2 m/s 747 mmHg 36%
    06:00 +17°C° 0 mm 3 m/s 746 mmHg 35%
    07:00 +20°C° 0 mm 2 m/s 746 mmHg 32%
    08:00 +24°C° 0 mm 2 m/s 746 mmHg 30%
    09:00 +26°C° 0 mm 2 m/s 746 mmHg 27%
    10:00 +27°C° 0 mm 2 m/s 746 mmHg 27%
    11:00 +28°C° 0 mm 2 m/s 746 mmHg 27%
    12:00 +29°C° 0 mm 3 m/s 746 mmHg 27%
    13:00 +28°C° 0 mm 3 m/s 745 mmHg 31%
    14:00 +27°C° 0 mm 3 m/s 745 mmHg 35%
    15:00 +26°C° 0 mm 3 m/s 745 mmHg 39%
    16:00 +25°C° 0 mm 3 m/s 745 mmHg 42%
    17:00 +22°C° 0 mm 3 m/s 745 mmHg 46%
    18:00 +20°C° 0 mm 3 m/s 745 mmHg 49%
    19:00 +20°C° 0 mm 3 m/s 745 mmHg 46%
    20:00 +20°C° 0 mm 2 m/s 745 mmHg 43%
    21:00 +19°C° 0 mm 2 m/s 746 mmHg 39%
    22:00 +19°C° 0 mm 2 m/s 746 mmHg 38%
    23:00 +19°C° 0 mm 2 m/s 746 mmHg 38%

    25 Outubro, Quinta-feira

    Tempo Temperatura Precipitação Vento Pressão Humidade
    00:00 +19°C° 0 mm 2 m/s 746 mmHg 37%
    01:00 +19°C° 0 mm 2 m/s 746 mmHg 38%
    02:00 +19°C° 0 mm 2 m/s 746 mmHg 38%
    03:00 +18°C° 0 mm 2 m/s 746 mmHg 39%
    04:00 +18°C° 0 mm 2 m/s 746 mmHg 40%
    05:00 +18°C° 0 mm 2 m/s 746 mmHg 40%
    06:00 +18°C° 0 mm 2 m/s 747 mmHg 41%
    07:00 +20°C° 0 mm 2 m/s 747 mmHg 40%
    08:00 +23°C° 0 mm 2 m/s 747 mmHg 39%
    09:00 +25°C° 0 mm 2 m/s 747 mmHg 38%
    10:00 +25°C° 0 mm 2 m/s 747 mmHg 39%
    11:00 +26°C° 0 mm 2 m/s 747 mmHg 41%
    12:00 +26°C° 0 mm 2 m/s 747 mmHg 43%
    13:00 +25°C° 0 mm 2 m/s 747 mmHg 47%
    14:00 +25°C° 0 mm 2 m/s 747 mmHg 52%
    15:00 +24°C° 0 mm 2 m/s 746 mmHg 57%
    16:00 +21°C° 0 mm 2 m/s 746 mmHg 66%
    17:00 +19°C° 0 mm 2 m/s 746 mmHg 74%
    18:00 +17°C° 0 mm 2 m/s 746 mmHg 83%
    19:00 +17°C° 0 mm 2 m/s 746 mmHg 83%
    20:00 +17°C° 0 mm 2 m/s 746 mmHg 83%
    21:00 +16°C° 0 mm 2 m/s 747 mmHg 83%
    22:00 +16°C° 0 mm 2 m/s 746 mmHg 82%
    23:00 +16°C° 0 mm 2 m/s 746 mmHg 82%

    26 Outubro, Sexta-feira

    Tempo Temperatura Precipitação Vento Pressão Humidade
    00:00 +15°C° 0 mm 2 m/s 746 mmHg 82%
    01:00 +15°C° 0 mm 2 m/s 746 mmHg 81%
    02:00 +15°C° 0 mm 2 m/s 746 mmHg 81%
    03:00 +15°C° 0 mm 2 m/s 745 mmHg 80%
    04:00 +14°C° 0 mm 3 m/s 745 mmHg 79%
    05:00 +13°C° 0 mm 3 m/s 745 mmHg 78%
    06:00 +13°C° 0 mm 3 m/s 745 mmHg 77%
    07:00 +16°C° 0 mm 3 m/s 745 mmHg 70%
    08:00 +18°C° 0 mm 3 m/s 745 mmHg 64%
    09:00 +20°C° 0 mm 4 m/s 745 mmHg 58%
    10:00 +21°C° 0 mm 4 m/s 745 mmHg 57%
    11:00 +22°C° 0 mm 5 m/s 745 mmHg 57%
    12:00 +22°C° 0 mm 5 m/s 744 mmHg 57%
    13:00 +22°C° 0.1 mm 5 m/s 744 mmHg 62%
    14:00 +21°C° 0.1 mm 5 m/s 743 mmHg 66%
    15:00 +20°C° 0.1 mm 5 m/s 743 mmHg 71%
    16:00 +19°C° 0.1 mm 5 m/s 743 mmHg 78%
    17:00 +18°C° 0.1 mm 4 m/s 743 mmHg 85%
    18:00 +17°C° 0.1 mm 4 m/s 743 mmHg 93%
    19:00 +17°C° 0.1 mm 4 m/s 743 mmHg 92%
    20:00 +17°C° 0.1 mm 4 m/s 743 mmHg 92%
    21:00 +15°C° 0.1 mm 4 m/s 743 mmHg 91%
    22:00 +16°C° 0.1 mm 3 m/s 742 mmHg 90%
    23:00 +16°C° 0.1 mm 3 m/s 742 mmHg 89%
    Mostrar mais